Weather History for KJRB - March, 2014

Change the Weather History Date:

Sunday, March 2, 2014

  Actual Average (KNYC) Record (KNYC)
Temperature  
Mean Temperature 38 °F 38 °F  
Max Temperature 41 °F 45 °F 72 °F (1972)
Min Temperature 33 °F 32 °F 9 °F (1891)
Degree Days  
Heating Degree Days 27 27  
Month to date heating degree days 54  
Since 1 July heating degree days 3576  
Cooling Degree Days 0 0  
Month to date cooling degree days 0  
Year to date cooling degree days 0  
Moisture  
Dew Point 24 °F    
Average Humidity 59    
Maximum Humidity 75    
Minimum Humidity 48    
Precipitation  
Precipitation 0.29 in 0.12 in 2.41 in (2007)
Month to date precipitation 0.25  
Year to date precipitation 6.99  
Snow  
Snow 0.00 in 0.20 in 10.00 in (1896)
Month to date snowfall 0.4  
Since 1 July snowfall 21.7  
Snow Depth -    
Sea Level Pressure  
Sea Level Pressure 30.06 in    
Wind  
Wind Speed 5 mph (WSW)    
Max Wind Speed 9 mph    
Max Gust Speed 44 mph    
Visibility 10 miles    
Events      
T = Trace of Precipitation, MM = Missing Value Source: NWS Daily Summary

Daily Weather History Graph

Daily Weather History Graph

Search for Another Location

Airport or City:

Trip Planner

Search our weather history database for the weather conditions in past years. The results will help you decide how hot, cold, wet, or windy it might be!

Date:

Astronomy

Mar. 02, 2014 Rise Set
Actual Time 6:28 AM EST 5:48 PM EST
Civil Twilight 6:01 AM EST 6:15 PM EST
Nautical Twilight 5:29 AM EST 6:47 PM EST
Astronomical Twilight 4:57 AM EST 7:19 PM EST
Moon 6:57 AM EST (3/2) 7:42 PM EST (3/2)
Length of Visible Light 12h 14m
Length of Day
11h 19m
Waxing Crescent, 3% of the Moon is Illuminated
Mar 2
Waxing Crescent
Mar 8
First Quarter
Mar 16
Full
Mar 23
Last Quarter
Mar 30
New

Hourly Weather History & Observations

Time (EST) Temp. Windchill Dew Point Humidity Pressure Visibility Wind Dir Wind Speed Gust Speed Precip Events Conditions
12:15 AM 35.6 °F 31.7 °F 24.8 °F 65% 30.17 in 10.0 mi WSW 4.6 mph - N/A   Overcast
12:35 AM 35.6 °F 32.8 °F 24.8 °F 65% 30.15 in 10.0 mi SW 3.5 mph - N/A   Mostly Cloudy
12:55 AM 35.6 °F 31.7 °F 21.2 °F 56% 30.14 in 10.0 mi West 4.6 mph - N/A   Partly Cloudy
1:15 AM 35.6 °F 29.9 °F 19.4 °F 52% 30.14 in 10.0 mi West 6.9 mph - N/A   Clear
1:35 AM 35.6 °F 30.7 °F 19.4 °F 52% 30.14 in 10.0 mi West 5.8 mph - N/A   Scattered Clouds
1:55 AM 35.6 °F 29.9 °F 19.4 °F 52% 30.14 in 10.0 mi West 6.9 mph - N/A   Overcast
2:15 AM 35.6 °F 30.7 °F 19.4 °F 52% 30.14 in 10.0 mi West 5.8 mph - N/A   Overcast
2:35 AM 35.6 °F 30.7 °F 19.4 °F 52% 30.13 in 10.0 mi WSW 5.8 mph - N/A   Scattered Clouds
2:55 AM 35.6 °F 29.9 °F 21.2 °F 56% 30.11 in 10.0 mi WSW 6.9 mph - N/A   Mostly Cloudy
3:15 AM 35.6 °F 30.7 °F 21.2 °F 56% 30.11 in 10.0 mi SW 5.8 mph - N/A   Overcast
3:35 AM 35.6 °F 28.6 °F 21.2 °F 56% 30.11 in 10.0 mi West 9.2 mph - N/A   Overcast
3:55 AM 35.6 °F 28.6 °F 21.2 °F 56% 30.10 in 10.0 mi WSW 9.2 mph - N/A   Overcast
4:15 AM 35.6 °F 29.2 °F 23.0 °F 60% 30.11 in 10.0 mi West 8.1 mph - N/A   Overcast
4:35 AM 35.6 °F 29.9 °F 24.8 °F 65% 30.09 in 10.0 mi WSW 6.9 mph - N/A   Overcast
4:55 AM 35.6 °F 28.6 °F 24.8 °F 65% 30.10 in 10.0 mi West 9.2 mph - N/A   Overcast
5:15 AM 35.6 °F 29.2 °F 23.0 °F 60% 30.10 in 10.0 mi West 8.1 mph - N/A   Overcast
5:35 AM 35.6 °F 32.8 °F 24.8 °F 65% 30.08 in 10.0 mi WSW 3.5 mph - N/A   Overcast
5:55 AM 35.6 °F 31.7 °F 24.8 °F 65% 30.08 in 10.0 mi West 4.6 mph - N/A   Overcast
6:15 AM 35.6 °F 30.7 °F 24.8 °F 65% 30.10 in 10.0 mi West 5.8 mph - N/A   Overcast
6:35 AM 35.6 °F 31.7 °F 24.8 °F 65% 30.09 in 10.0 mi WSW 4.6 mph - N/A   Overcast
6:55 AM 35.6 °F 31.7 °F 26.6 °F 70% 30.10 in 10.0 mi WSW 4.6 mph - N/A   Overcast
7:15 AM 35.6 °F 30.7 °F 24.8 °F 65% 30.09 in 10.0 mi West 5.8 mph - N/A   Overcast
7:35 AM 35.6 °F 31.7 °F 24.8 °F 65% 30.09 in 10.0 mi WSW 4.6 mph - N/A   Overcast
7:55 AM 35.6 °F 29.9 °F 24.8 °F 65% 30.10 in 10.0 mi WSW 6.9 mph - N/A   Overcast
8:15 AM 35.6 °F 31.7 °F 24.8 °F 65% 30.09 in 10.0 mi WSW 4.6 mph - N/A   Overcast
8:35 AM 35.6 °F 31.7 °F 24.8 °F 65% 30.08 in 10.0 mi SW 4.6 mph - N/A   Overcast
8:55 AM 35.6 °F 30.7 °F 26.6 °F 70% 30.10 in 10.0 mi WSW 5.8 mph - N/A   Overcast
9:15 AM 35.6 °F 31.7 °F 26.6 °F 70% 30.10 in 10.0 mi West 4.6 mph - N/A   Overcast
9:35 AM 37.4 °F 32.8 °F 26.6 °F 65% 30.10 in 10.0 mi West 5.8 mph - 0.10 in   Overcast
9:55 AM 37.4 °F 33.8 °F 26.6 °F 65% 30.10 in 10.0 mi WSW 4.6 mph - 0.10 in   Overcast
10:15 AM 37.4 °F 33.8 °F 24.8 °F 60% 30.09 in 10.0 mi WSW 4.6 mph - N/A   Overcast
10:35 AM 37.4 °F 33.8 °F 24.8 °F 60% 30.08 in 9.0 mi WSW 4.6 mph - N/A   Overcast
10:55 AM 37.4 °F 32.8 °F 24.8 °F 60% 30.08 in 10.0 mi WSW 5.8 mph - N/A   Overcast
11:15 AM 37.4 °F 32.8 °F 24.8 °F 60% 30.08 in 10.0 mi West 5.8 mph - N/A   Overcast
11:35 AM 37.4 °F 33.8 °F 26.6 °F 65% 30.07 in 10.0 mi WSW 4.6 mph 43.7 mph 0.09 in   Overcast
11:55 AM 39.2 °F 35.9 °F 23.0 °F 52% 30.07 in 10.0 mi ESE 4.6 mph - 0.14 in   Overcast
12:15 PM 39.2 °F - 23.0 °F 52% 30.05 in 10.0 mi Calm Calm - N/A   Overcast
12:35 PM 39.2 °F - 23.0 °F 52% 30.03 in 10.0 mi Calm Calm - N/A   Scattered Clouds
12:55 PM 39.2 °F 35.9 °F 23.0 °F 52% 30.02 in 9.0 mi NE 4.6 mph - N/A   Mostly Cloudy
1:15 PM 39.2 °F 34.2 °F 23.0 °F 52% 30.01 in 10.0 mi ENE 6.9 mph - N/A   Overcast
1:35 PM 39.2 °F 37.0 °F 24.8 °F 56% 30.00 in 10.0 mi NE 3.5 mph - N/A   Overcast
1:55 PM 39.2 °F 35.9 °F 23.0 °F 52% 30.00 in 10.0 mi ENE 4.6 mph - N/A   Overcast
2:15 PM 39.2 °F - 24.8 °F 56% 30.01 in 10.0 mi Calm Calm - N/A   Overcast
2:35 PM 39.2 °F 33.6 °F 24.8 °F 56% 30.01 in 10.0 mi West 8.1 mph - 0.05 in   Overcast
2:55 PM 39.2 °F - 24.8 °F 56% 30.01 in 10.0 mi Calm Calm - 0.05 in   Overcast
3:15 PM 39.2 °F - 24.8 °F 56% 30.01 in 10.0 mi Calm Calm - N/A   Overcast
3:35 PM 41.0 °F - 24.8 °F 53% 30.01 in 10.0 mi Calm Calm - N/A   Partly Cloudy
3:55 PM 41.0 °F - 26.6 °F 57% 30.01 in 10.0 mi Calm Calm - N/A   Partly Cloudy
4:15 PM 41.0 °F - 26.6 °F 57% 30.02 in 10.0 mi Calm Calm - N/A   Mostly Cloudy
4:35 PM 39.2 °F 35.9 °F 26.6 °F 61% 30.02 in 10.0 mi West 4.6 mph - N/A   Overcast
4:55 PM 39.2 °F 37.0 °F 26.6 °F 61% 30.03 in 10.0 mi West 3.5 mph - N/A   Overcast
5:15 PM 37.4 °F - 26.6 °F 65% 30.03 in 8.0 mi Calm Calm - N/A   Overcast
5:35 PM 37.4 °F - 28.4 °F 70% 30.04 in 10.0 mi Calm Calm - N/A   Overcast
5:55 PM 37.4 °F 33.8 °F 26.6 °F 65% 30.04 in 10.0 mi WSW 4.6 mph - N/A   Overcast
6:15 PM 37.4 °F 32.8 °F 26.6 °F 65% 30.03 in 10.0 mi West 5.8 mph - N/A   Overcast
6:35 PM 37.4 °F 32.1 °F 28.4 °F 70% 30.03 in 10.0 mi WSW 6.9 mph - N/A   Overcast
6:55 PM 35.6 °F 30.7 °F 28.4 °F 75% 30.03 in 10.0 mi WSW 5.8 mph - N/A   Overcast
7:15 PM 35.6 °F 31.7 °F 28.4 °F 75% 30.04 in 10.0 mi WSW 4.6 mph - N/A   Overcast
7:35 PM 35.6 °F 29.9 °F 28.4 °F 75% 30.02 in 10.0 mi WSW 6.9 mph - N/A   Overcast
7:55 PM 35.6 °F 32.8 °F 26.6 °F 70% 30.01 in 10.0 mi WSW 3.5 mph - N/A   Overcast
8:15 PM 37.4 °F 33.8 °F 21.2 °F 52% 30.02 in 10.0 mi West 4.6 mph - N/A   Overcast
8:35 PM 37.4 °F 34.9 °F 19.4 °F 48% 30.03 in 10.0 mi WNW 3.5 mph - N/A   Overcast
8:55 PM 37.4 °F 34.9 °F 19.4 °F 48% 30.02 in 10.0 mi West 3.5 mph - N/A   Overcast
9:15 PM 37.4 °F 34.9 °F 19.4 °F 48% 30.02 in 10.0 mi West 3.5 mph - N/A   Overcast
9:35 PM 37.4 °F - 19.4 °F 48% 30.03 in 10.0 mi Calm Calm - N/A   Overcast
9:55 PM 35.6 °F 31.7 °F 19.4 °F 52% 30.02 in 10.0 mi West 4.6 mph - N/A   Overcast
10:15 PM 35.6 °F 30.7 °F 19.4 °F 52% 30.02 in 10.0 mi West 5.8 mph - N/A   Overcast
10:35 PM 35.6 °F 31.7 °F 19.4 °F 52% 30.02 in 10.0 mi West 4.6 mph - N/A   Overcast
10:55 PM 35.6 °F 31.7 °F 19.4 °F 52% 30.02 in 10.0 mi West 4.6 mph - N/A   Overcast
11:15 PM 35.6 °F - 19.4 °F 52% 30.03 in 10.0 mi Calm Calm - N/A   Overcast
11:35 PM 35.6 °F - 17.6 °F 48% 30.03 in 10.0 mi Calm Calm - N/A   Overcast
11:55 PM 33.8 °F 29.6 °F 17.6 °F 52% 30.02 in 10.0 mi West 4.6 mph - N/A   Overcast